Regional Weather Roundup
Issued by NWS

Home | Current Version | Previous Version | Graphics & Text | Print | Product List | Glossary On
Versions: 1 2 3 4 5 6 7 8 9 10 11 12 13 14 15 16 17 18 19 20 21 22 23 24 25 26 27 28 29 30 31 32 33 34 35 36 37 38 39 40 41 42 43 44 45 46 47 48 49 50
053
ASUS45 KBOU 232007
RWRCO

WEATHER ROUNDUP FOR COLORADO
NATIONAL WEATHER SERVICE DENVER/BOULDER CO
200 PM MDT MON MAY 23 2016

NOTE: "FAIR" INDICATES FEW OR NO CLOUDS BELOW 12000 FEET WITH NO
SIGNIFICANT WEATHER AND/OR OBSTRUCTIONS TO VISIBILITY.

COZ001>005-013-030-031-232100-
...NORTHWEST COLORADO...

CITY           SKY/WX    TMP DP  RH WIND       PRES   REMARKS
CRAIG          FAIR      63  27  25 MISG      29.92F
HAYDEN         FAIR      59  25  27 W7        29.94S
MEEKER         PTSUNNY   61  24  24 W5        29.94R
MOUNT WERNER   NOT AVBL
STEAMBOAT SPGS PTSUNNY   58  25  28 W7        29.94F
WALDEN         PTSUNNY   55  18  22 SW16G26   30.00S
$$

COZ006>008-011-232100-
...WEST CENTRAL VALLEYS...

CITY           SKY/WX    TMP DP  RH WIND       PRES   REMARKS
GRAND JUNCTION FAIR      71  26  18 W9        29.85F
MONTROSE       FAIR      70  21  15 S12       29.90F
EAGLE          PTSUNNY   63  21  20 W17G23    29.93F
RIFLE          FAIR      67  21  17 W16       29.87F
DELTA          FAIR      76  20  12 SW6G18    29.87F
NUCLA          FAIR      70  18  13 S16G23    29.95F
$$

COZ017>023-064>068-232100-
...SOUTHWEST COLORADO...

CITY           SKY/WX    TMP DP  RH WIND       PRES   REMARKS
DURANGO        FAIR      64  24  21 VRB6      29.99F
CORTEZ         FAIR      69  18  14 SW12G21   29.94F
PAGOSA SPRINGS FAIR      62  14  15 S13G29    30.04F
TELLURIDE      FAIR      56  10  16 S8G23     30.06S
WOLF CREEK PAS FAIR      37  16  41 SW25G45   30.21S
$$

COZ009-010-012-014-032>034-037-058>063-232100-
...CENTRAL COLORADO...

CITY           SKY/WX    TMP DP  RH WIND       PRES   REMARKS
ASPEN          FAIR      62  19  19 SW14G24   29.95F
BUENA VISTA    FAIR      63  17  16 S13G26    29.96F
COPPER MTN     NOT AVBL
BERTHOUD PASS  CLOUDY    30  21  69 SW16G25   30.18R WCI  19
COTTONWOOD PAS CLOUDY    54  14  20 SE13      30.05F
GUNNISON       FAIR      63  19  19 W13       29.97F
KREMMLING      FAIR      61  19  20 SW12G21   29.96F
LEADVILLE      PTSUNNY   51  15  23 W10       30.04F
MONARCH PASS   PTSUNNY   41  18  38 SW18G24   30.25S
SALIDA         CLOUDY    67  16  14 SW9       29.99F
SUNLIGHT       CLOUDY    45  23  42 CALM      30.13F
WILKERSON PASS MIX PCPN  39  23  52 SW8       30.15R
$$

COZ069>075-232100-
...SAN LUIS VALLEY/SANGRE DE CRISTO MOUNTAINS...

CITY           SKY/WX    TMP DP  RH WIND       PRES   REMARKS
ALAMOSA        FAIR      69  17  13 SW24G35   29.97F
LA VETA PASS   FAIR      59  23  25 S15G30    30.10F
SAGUACHE       FAIR      64  16  15 SW13G21   29.95F
$$

COZ035-036-038>040-232100-
...NORTHERN COLORADO FRONT RANGE...

CITY           SKY/WX    TMP DP  RH WIND       PRES   REMARKS
DENVER INTL AP PTSUNNY   65  33  30 SE14G33   29.86F THUNDER
DMNS CITY PARK   N/A     58  44  59 N15       29.91R
AURORA         PTSUNNY   64  32  29 S12       29.87S
FRONT RANGE AP PTSUNNY   66  32  28 SE23G33   29.87F
ERIE MUNI ARPT PTSUNNY   59  38  45 S21G36    29.90R
BOULDER MUN AP PTSUNNY   63  36  36 SE13G26   29.88S
CENTENNIAL     CLOUDY    60  36  40 NW20G28   29.89R
BROOMFIELD     LGT RAIN  55  45  67 MISG      29.91S
FORT COLLINS   FAIR      68  43  40 SE17G24   29.87F
LONGMONT       FAIR      69  35  28 SE9       29.89S
$$

COZ041-046-047-076>085-087-088-232100-
...PIKES PEAK/PALMER DIVIDE AND SOUTHERN FOOTHILLS...

CITY           SKY/WX    TMP DP  RH WIND       PRES   REMARKS
COLO. SPRINGS  FAIR      67  29  24 S10G21    29.93F
A. F. ACADEMY  FAIR      64  30  27 S22G28    29.92F
SCHRIEVER AFB  NOT AVBL
ELLICOTT       FAIR     N/A N/A N/A S13G25    29.91F
FALCON         FAIR      65  26  23 S17       29.96F
FORT CARSON    FAIR      67  32  27 VRB2      29.90F
LIMON          FAIR      68  34  28 S17G24    29.90F
MONUMENT HILL  FAIR      61  32  33 S23G32    29.94F
TRINIDAD       FAIR      72  39  30 SE10G20   29.88F
$$

COZ042>045-048>051-090-091-232100-
...NORTHEAST COLORADO...

CITY           SKY/WX    TMP DP  RH WIND       PRES   REMARKS
GREELEY ARPT   FAIR      66  39  37 SE14G24   29.86F
AKRON          FAIR      69  32  25 E7        29.87F
BURLINGTON     FAIR      75  37  25 E12       29.86F
WRAY           FAIR      73  32  21 SE3       29.85F
STERLING       FAIR      70  37  30 W6        29.84F
HOLYOKE        FAIR      77  32  19 SE6       29.85F
FORT MORGAN    FAIR      69  37  30 S7        29.87F
$$

COZ086-089-092>099-232100-
...SOUTHEAST COLORADO...

CITY           SKY/WX    TMP DP  RH WIND       PRES   REMARKS
PUEBLO         FAIR      74  31  20 SE9       29.84F
LA JUNTA       FAIR      77  38  24 SE10G17   29.83F
LAMAR          FAIR      79  49  34 E10G21    29.81F
SPRINGFIELD      N/A     76  44  32 VRB5      29.83F
$$




USA.gov is the U.S. government's official web portal to all federal, state and local government web resources and services.